Wind_Speed
26 27 27 27 28 28 29 30 30 30 31 32 32 32 32 33 33 34 34 34 34 35 35 36 36 37 38 38 38 39 39 40 41 42 43 42 43 44 44 46 47 47 48 49
26 26 26 27 28 29 29 30 31 31 32 33 33 33 33 34 34 34 35 35 35 35 36 36 37 38 39 39 40 40 41 41 42 43 43 44 45 46 46 47 49 50 50 51
26 26 26 27 28 29 30 30 31 32 33 34 35 35 34 34 35 35 35 35 34 35 36 36 37 37 38 39 39 40 41 42 42 43 44 44 45 47 48 48 50 51 51 52
27 27 27 28 29 30 31 31 32 32 34 35 35 37 34 34 35 35 35 34 34 35 34 35 35 36 37 39 40 40 41 42 42 43 44 44 46 47 48 50 50 51 51 53
28 28 29 29 30 31 31 32 33 33 35 36 36 38 35 34 35 35 34 34 33 33 34 34 35 36 37 39 39 40 41 42 43 44 45 46 47 48 49 50 51 51 51 53
29 29 30 31 31 32 33 33 35 35 36 38 37 38 37 34 34 34 34 34 34 34 35 36 36 37 38 38 39 40 41 42 43 44 45 47 47 48 49 50 51 52 52 53
30 31 32 33 33 33 34 34 36 38 38 39 37 38 37 35 35 35 35 35 36 36 36 36 37 37 38 38 39 41 42 43 44 45 46 47 48 48 49 50 52 52 53 54
32 33 32 33 34 34 34 35 36 38 39 40 39 39 37 36 35 35 36 36 37 36 37 37 37 38 39 39 40 42 43 44 45 45 47 48 48 49 50 51 52 53 53 54
33 34 33 33 34 34 35 35 36 38 40 40 40 39 37 35 35 35 35 36 36 37 37 38 38 38 39 40 41 42 43 44 45 45 46 48 49 49 50 51 52 53 53 53
34 34 34 34 34 35 35 36 36 37 39 40 41 39 38 36 35 35 36 37 37 37 37 38 38 38 39 41 42 42 43 44 45 46 47 48 48 49 50 51 51 52 52 52
34 35 35 35 34 35 36 36 36 37 38 39 41 39 38 37 36 36 36 36 37 38 38 38 39 39 40 41 42 43 44 44 45 46 47 48 48 48 49 50 50 50 51 51
34 36 36 36 35 35 36 36 36 37 38 38 40 39 38 37 36 36 36 36 37 38 39 39 40 40 41 41 42 42 43 45 46 46 46 47 48 48 49 49 49 50 49 49
36 37 37 37 36 36 36 36 37 38 39 39 39 38 37 37 37 37 37 37 37 38 38 39 40 41 41 42 42 42 43 44 45 44 45 45 47 48 48 48 48 48 48 48
37 38 38 37 36 36 36 36 36 37 38 38 38 37 36 36 37 37 37 37 37 37 37 38 39 39 39 40 41 42 42 43 43 43 44 45 45 46 47 47 47 47 46 46
38 39 38 37 37 37 37 37 38 38 38 39 38 37 35 36 36 36 36 36 36 36 37 37 37 38 38 39 40 40 40 41 42 42 43 43 44 45 46 46 46 46 45 45
37 38 38 38 37 38 38 38 38 38 38 38 38 36 35 36 36 37 36 36 36 37 37 38 38 38 38 39 39 40 40 40 40 41 41 42 42 44 44 44 45 45 45 45
36 37 37 37 37 38 37 36 36 36 36 37 37 35 35 36 36 36 36 37 37 37 37 38 38 38 39 39 39 39 39 40 40 40 40 41 42 43 43 43 44 44 45 44
34 35 36 36 36 37 36 35 36 36 36 36 36 36 36 36 36 36 37 38 37 37 37 38 38 38 39 39 39 39 39 40 40 40 41 41 42 42 43 43 44 45 45 44
34 34 35 36 37 37 35 35 35 36 36 36 37 37 37 37 37 37 37 37 37 37 37 37 38 38 38 38 39 39 39 40 40 41 41 41 41 42 42 42 43 43 43 42
34 34 35 36 37 36 34 34 35 36 37 36 37 37 37 37 37 36 37 37 36 36 37 37 37 37 38 38 38 39 39 39 40 40 41 41 41 42 41 41 41 40 40 39
33 34 34 35 36 35 34 34 35 36 36 36 36 36 37 37 38 37 36 36 36 36 37 37 37 37 37 38 38 38 39 39 40 40 41 41 40 40 39 39 39 38 37 37
32 33 33 33 34 34 34 34 35 35 35 35 35 36 37 37 37 36 36 36 36 36 36 37 37 37 37 37 37 37 38 38 39 39 39 39 38 38 37 37 37 36 34 34
33 32 33 33 33 34 34 35 35 35 34 34 36 36 37 36 36 36 36 36 36 36 36 37 37 37 37 37 37 37 37 37 37 37 36 36 36 36 35 35 34 33 33 33
33 33 33 34 33 33 33 34 34 34 34 34 35 35 36 36 35 35 35 35 35 36 36 37 37 37 37 37 36 36 36 35 35 35 35 34 34 34 34 33 32 31 31 31
33 34 34 33 33 33 33 33 33 34 34 34 34 34 35 35 34 34 34 35 36 35 36 36 36 36 36 36 35 35 34 34 34 33 33 33 33 33 32 31 31 30 30 30
33 34 33 32 31 32 32 32 33 34 34 34 34 35 35 34 34 34 34 35 35 35 36 36 36 36 36 35 34 33 33 33 33 32 32 32 31 31 30 30 30 29 29 29
Wind_Direction
274 274 274 275 274 275 276 276 277 278 277 277 278 278 278 278 278 279 279 279 279 279 278 277 276 275 273 272 271 270 269 269 268 268 267 268 269 268 269 270 271 272 272 271
274 275 275 275 275 275 276 278 279 278 279 279 278 278 278 278 279 279 279 279 278 278 277 276 276 275 273 272 272 271 269 269 269 268 268 269 270 270 270 272 272 273 273 272
277 276 275 275 276 277 278 280 281 281 281 281 281 280 280 280 280 279 279 279 279 278 277 277 277 276 274 273 272 271 269 269 270 270 270 270 271 272 272 273 274 274 274 273
277 277 276 276 277 278 279 280 281 281 281 283 283 283 284 284 282 281 280 279 279 278 277 277 277 276 275 273 272 271 270 270 271 271 271 272 273 273 274 274 275 274 274 274
279 278 277 277 278 279 280 281 281 282 282 283 284 284 286 286 284 284 282 281 280 279 278 277 277 277 276 274 272 271 270 270 272 272 273 274 275 275 276 276 276 275 276 277
279 279 279 279 279 279 280 281 281 281 281 282 285 285 286 288 288 286 283 282 281 280 279 278 277 277 277 275 274 272 272 273 274 275 275 275 275 276 277 277 276 276 277 277
279 281 282 281 280 279 280 281 282 283 282 284 287 285 287 289 289 287 284 283 282 281 280 279 278 278 277 276 276 276 276 276 277 276 276 276 276 277 277 278 277 277 277 278
281 281 282 281 281 280 280 281 282 283 284 285 286 286 289 290 289 287 285 284 283 282 280 279 279 279 279 278 279 279 278 277 277 277 277 277 277 278 278 279 278 278 278 278
282 282 282 282 281 280 281 280 282 283 283 284 285 286 288 290 290 287 285 284 283 281 280 280 280 279 279 279 280 280 279 278 277 278 278 278 279 279 280 280 280 279 279 279
281 281 281 281 280 279 281 282 282 282 283 285 286 287 289 290 290 288 287 284 283 281 280 281 280 279 280 279 280 281 281 279 279 279 280 280 281 281 281 282 282 281 280 279
280 280 281 281 281 280 280 280 281 281 282 285 286 288 290 291 291 289 287 286 283 282 281 280 280 280 280 280 281 280 281 281 282 282 281 281 281 282 282 283 283 282 281 280
280 280 280 280 281 281 280 280 280 281 283 285 286 288 290 290 290 289 287 286 284 284 283 282 281 281 281 281 281 281 282 282 282 282 283 282 282 283 284 285 285 283 282 281
280 280 281 280 280 281 280 280 280 281 283 284 286 289 290 290 289 287 286 286 286 285 285 284 284 283 283 283 282 282 283 283 283 283 284 285 285 285 285 286 286 285 284 282
279 279 280 281 282 282 281 281 281 281 283 285 287 289 289 288 286 286 286 286 286 286 285 285 286 285 285 286 285 285 285 285 286 286 286 286 286 286 286 286 286 286 285 283
278 279 279 279 280 280 279 279 280 281 282 283 286 287 289 287 286 286 286 285 285 285 285 286 286 286 287 287 287 287 287 287 288 288 288 287 287 287 287 287 286 286 285 283
279 280 280 279 280 280 279 279 280 281 282 284 285 286 287 287 286 286 285 285 284 284 285 286 287 287 287 287 287 288 288 288 289 289 289 288 288 288 288 287 287 286 285 284
280 282 282 281 281 281 280 282 281 282 283 283 284 285 285 286 287 285 285 285 285 286 287 287 287 287 288 288 288 288 287 288 289 290 290 290 289 289 288 288 287 286 285 284
281 281 282 283 281 281 284 284 284 283 283 283 283 284 285 285 285 285 285 286 287 288 288 288 288 288 289 289 288 288 288 289 289 290 291 291 291 290 290 289 288 287 286 284
282 282 283 284 284 283 284 285 285 285 283 283 284 284 285 285 285 286 287 287 287 288 288 288 288 289 289 290 290 290 291 291 291 291 292 292 292 292 291 292 291 289 287 284
282 282 283 284 284 285 285 285 286 285 285 284 284 284 284 285 286 287 287 287 287 288 288 288 288 289 290 291 292 292 293 293 293 293 293 293 294 294 293 292 293 291 288 284
283 282 283 284 284 285 286 287 287 286 287 286 284 284 285 286 287 286 286 286 286 288 289 289 289 290 291 292 293 294 294 294 295 294 294 294 294 294 294 294 293 291 288 285
284 284 284 284 284 285 287 287 286 286 286 286 286 285 285 286 287 286 286 286 287 288 289 289 290 290 291 292 293 294 294 295 296 296 295 295 295 295 296 297 294 291 288 286
281 282 282 283 285 285 286 286 286 286 286 285 285 286 287 286 286 286 286 287 287 287 288 290 291 291 291 292 293 293 295 296 296 297 297 296 296 297 297 297 295 291 289 287
281 281 282 282 284 285 284 284 284 285 286 286 287 287 287 287 286 287 288 288 288 289 290 291 292 292 292 292 293 294 295 296 296 297 297 296 296 297 297 297 295 292 291 289
283 283 284 284 284 284 283 282 281 282 284 285 287 288 288 288 288 288 289 289 290 291 291 291 292 292 292 292 293 294 295 295 296 297 297 296 297 297 297 297 296 294 294 293
283 283 284 284 284 283 282 282 283 284 284 284 286 287 288 288 288 288 289 290 290 291 291 292 292 292 292 292 292 294 295 295 296 296 297 297 296 296 297 297 297 296 295 293
Height
5743 5743 5741 5741 5739 5738 5737 5736 5735 5734 5732 5730 5728 5728 5727 5724 5723 5721 5720 5718 5717 5715 5714 5712 5710 5709 5707 5706 5705 5704 5703 5702 5702 5701 5700 5699 5698 5698 5697 5696 5695 5694 5694 5693
5736 5735 5735 5733 5731 5730 5728 5727 5726 5725 5723 5720 5719 5718 5717 5715 5714 5712 5710 5709 5707 5705 5704 5702 5700 5698 5697 5696 5694 5693 5692 5691 5690 5689 5688 5688 5687 5686 5684 5683 5682 5681 5680 5679
5728 5729 5726 5725 5724 5722 5721 5719 5718 5716 5714 5711 5709 5709 5709 5707 5704 5702 5701 5699 5697 5696 5694 5692 5690 5688 5686 5685 5683 5682 5681 5680 5679 5677 5677 5676 5674 5673 5672 5670 5669 5667 5666 5665
5720 5720 5718 5717 5716 5714 5712 5711 5709 5706 5704 5702 5700 5697 5700 5697 5694 5692 5691 5689 5687 5685 5684 5682 5680 5678 5676 5674 5672 5671 5670 5669 5667 5666 5665 5664 5662 5661 5659 5657 5655 5653 5651 5650
5713 5712 5710 5709 5708 5705 5704 5702 5699 5697 5694 5692 5691 5687 5689 5686 5684 5683 5681 5679 5677 5675 5673 5671 5669 5667 5665 5663 5662 5660 5659 5657 5656 5655 5653 5651 5650 5648 5646 5643 5641 5639 5637 5635
5705 5703 5701 5700 5699 5696 5694 5692 5690 5687 5684 5683 5682 5678 5677 5677 5675 5673 5671 5668 5667 5665 5663 5661 5658 5656 5654 5653 5651 5649 5648 5646 5644 5643 5641 5639 5637 5634 5632 5630 5628 5625 5623 5621
5696 5694 5692 5691 5689 5687 5685 5683 5680 5676 5674 5673 5672 5668 5668 5667 5665 5662 5660 5658 5656 5654 5652 5649 5648 5646 5644 5642 5640 5638 5636 5634 5633 5630 5628 5626 5623 5621 5619 5616 5614 5612 5609 5606
5685 5685 5683 5681 5679 5677 5675 5673 5671 5667 5664 5663 5660 5658 5660 5657 5654 5651 5649 5647 5645 5643 5641 5639 5637 5635 5633 5631 5629 5627 5624 5622 5620 5618 5615 5613 5610 5608 5605 5602 5599 5597 5594 5592
5675 5675 5673 5671 5669 5667 5665 5663 5661 5657 5653 5651 5649 5649 5648 5647 5644 5641 5639 5636 5634 5632 5630 5628 5626 5624 5621 5619 5617 5615 5612 5610 5607 5605 5602 5600 5597 5594 5591 5588 5585 5582 5579 5577
5664 5663 5663 5661 5659 5657 5655 5652 5650 5646 5643 5640 5639 5639 5638 5636 5633 5631 5628 5626 5623 5621 5619 5617 5615 5612 5610 5608 5605 5603 5600 5597 5595 5592 5589 5586 5583 5580 5577 5574 5571 5568 5565 5562
5654 5652 5652 5650 5648 5646 5644 5642 5639 5636 5633 5631 5628 5631 5628 5625 5622 5620 5617 5615 5612 5610 5608 5606 5603 5601 5599 5596 5594 5591 5588 5585 5582 5579 5576 5573 5570 5567 5564 5560 5557 5553 5550 5547
5643 5641 5640 5639 5638 5635 5633 5631 5629 5627 5624 5621 5618 5621 5617 5615 5611 5609 5606 5604 5601 5599 5596 5594 5592 5589 5587 5584 5581 5578 5576 5573 5569 5566 5563 5560 5557 5553 5550 5547 5543 5540 5537 5534
5632 5630 5628 5627 5628 5625 5622 5620 5619 5616 5614 5610 5608 5611 5606 5603 5600 5597 5595 5592 5590 5588 5585 5583 5580 5577 5575 5572 5569 5566 5563 5560 5556 5553 5550 5546 5543 5540 5537 5533 5530 5526 5523 5520
5620 5619 5618 5616 5615 5613 5611 5610 5608 5605 5602 5600 5599 5598 5597 5592 5589 5587 5584 5582 5579 5577 5574 5571 5568 5566 5563 5560 5557 5554 5550 5547 5544 5540 5537 5534 5530 5527 5524 5520 5517 5513 5510 5506
5609 5608 5606 5605 5603 5602 5600 5599 5597 5594 5592 5590 5589 5587 5586 5582 5579 5576 5574 5571 5569 5566 5563 5560 5557 5554 5551 5548 5545 5542 5539 5535 5532 5528 5525 5521 5518 5514 5510 5507 5504 5500 5497 5493
5598 5596 5595 5594 5592 5590 5588 5588 5586 5583 5581 5579 5577 5576 5575 5571 5568 5565 5563 5560 5558 5555 5552 5549 5546 5543 5540 5537 5534 5531 5527 5524 5520 5516 5513 5509 5505 5501 5498 5494 5490 5487 5484 5481
5587 5585 5583 5582 5581 5578 5578 5578 5574 5573 5571 5569 5566 5566 5563 5560 5557 5554 5552 5549 5546 5544 5541 5538 5535 5532 5529 5526 5522 5519 5516 5512 5509 5505 5501 5497 5493 5489 5485 5481 5477 5473 5470 5467
5576 5574 5571 5570 5569 5567 5570 5566 5564 5561 5560 5558 5555 5553 5551 5549 5546 5543 5540 5538 5535 5533 5530 5527 5524 5521 5518 5514 5511 5508 5504 5500 5497 5493 5489 5485 5481 5476 5472 5468 5464 5460 5457 5454
5565 5563 5561 5559 5556 5556 5558 5555 5552 5549 5549 5547 5544 5542 5539 5537 5535 5533 5529 5527 5524 5521 5519 5516 5513 5510 5507 5503 5499 5496 5492 5488 5484 5481 5477 5472 5468 5464 5459 5455 5451 5447 5443 5440
5555 5553 5551 5548 5546 5546 5548 5544 5540 5539 5537 5536 5533 5530 5528 5526 5524 5523 5519 5516 5513 5510 5507 5504 5502 5498 5495 5492 5488 5484 5480 5476 5473 5468 5464 5460 5456 5451 5447 5443 5438 5434 5430 5427
5545 5543 5541 5539 5536 5535 5536 5533 5530 5529 5528 5525 5522 5519 5517 5514 5513 5511 5507 5505 5502 5499 5496 5493 5490 5487 5484 5480 5477 5473 5469 5465 5461 5456 5452 5448 5443 5439 5435 5430 5426 5422 5418 5415
5535 5533 5531 5529 5527 5529 5525 5522 5521 5518 5515 5513 5510 5508 5506 5504 5501 5498 5496 5493 5491 5488 5485 5482 5479 5476 5472 5469 5465 5462 5457 5453 5449 5444 5440 5435 5431 5427 5423 5418 5414 5410 5407 5404
5526 5524 5521 5520 5520 5517 5514 5511 5509 5507 5505 5502 5499 5497 5495 5493 5490 5488 5485 5482 5479 5477 5474 5471 5468 5465 5461 5457 5454 5450 5446 5442 5437 5433 5429 5424 5420 5416 5412 5408 5403 5400 5396 5394
5516 5513 5511 5509 5509 5507 5503 5500 5498 5496 5494 5491 5489 5487 5484 5482 5479 5477 5474 5471 5468 5466 5463 5460 5457 5453 5450 5446 5443 5439 5435 5431 5427 5423 5418 5414 5410 5406 5402 5398 5394 5390 5387 5384
5505 5503 5501 5499 5499 5496 5493 5490 5488 5486 5483 5481 5479 5476 5473 5471 5468 5466 5463 5461 5458 5455 5452 5449 5446 5443 5439 5436 5432 5429 5425 5421 5417 5413 5409 5405 5401 5397 5393 5389 5385 5382 5378 5375
5496 5493 5491 5490 5488 5485 5483 5481 5478 5476 5474 5471 5469 5466 5463 5461 5458 5456 5453 5450 5447 5444 5441 5438 5435 5432 5428 5425 5422 5418 5415 5411 5408 5404 5400 5396 5392 5388 5384 5380 5377 5373 5370 5367